Hourly Data Report for September 16, 2014

All times are specified in Local Standard Time (LST). Add 1 hour to adjust for Daylight Saving Time where and when it is observed.

Metadata including Station Name, Province, Latitude, Longitude, Elevation, Climate ID, WMO ID, TC ID
GRANBY
QUEBEC
Latitude: 45°22'22.000" N Longitude: 72°46'26.000" W Elevation: 86.00 m
Climate ID: 7022802 WMO ID: TC ID: MGB
Hourly Data Report for September 16, 2014
Temp Definition
°C

Dew Point Temp Definition
°C

Rel Hum Definition
%

Wind Dir Definition
10's deg
Wind Spd Definition
km/h

Visibility Definition
km

Stn Press Definition
kPa

Hmdx Definition

Wind Chill Definition

Weather Definition

00:00 10.6 8.4 86 20 4 100.59 LegendNANA
01:00 10.8 9.3 91 21 2 100.52 LegendNANA
02:00 10.8 9.5 92 19 4 100.48 LegendNANA
03:00 10.9 9.4 91 21 3 100.46 LegendNANA
04:00 10.6 9.5 93 24 2 100.45 LegendNANA
05:00 10.4 9.5 94 20 5 100.46 LegendNANA
06:00 10.5 9.9 96 21 3 100.49 LegendNANA
07:00 10.6 9.9 96 20 7 100.49 LegendNANA
08:00 11.0 10.4 96 20 4 100.47 LegendNANA
09:00 11.4 10.6 95 20 5 100.46 LegendNANA
10:00 12.4 11.1 92 19 6 100.43 LegendNANA
11:00 14.5 12.8 89 19 4 100.39 LegendNANA
12:00 14.5 10.8 78 19 8 100.33 LegendNANA
13:00 15.5 10.3 71 26 11 100.29 LegendNANA
14:00 16.0 10.7 70 23 5 100.24 LegendNANA
15:00 17.4 6.8 50 25 14 100.21 LegendNANA
16:00 16.6 7.9 57 26 8 100.19 LegendNANA
17:00 16.4 8.7 60 24 5 100.23 LegendNANA
18:00 12.6 8.4 76 23 2 100.23 LegendNANA
19:00 10.7 8.5 86 19 3 100.27 LegendNANA
20:00 9.1 7.2 88 22 2 100.31 LegendNANA
21:00 8.7 7.0 89 21 2 100.31 LegendNANA
22:00 8.2 6.8 91 23 2 100.34 LegendNANA
23:00 7.2 6.3 94 0 1 100.34 LegendNANA

Notes on Data Quality.

Legend
  • E = Estimated
  • M = Missing
  • NA = Not Available
  • ‡ = Partner data that is not subject to review by the National Climate Archives